カタログに戻る

APOLLO 16 LM

ORION

unknown科学PO
NORAD 6005·PAYLOAD·🇺🇸 United States

打ち上げ Apr 16, 1972 から Cape Canaveral Space Force Station

Loading…

次のパス (今後24時間)

TLE

古いSource: Space-Track

元期: Sep 22, 1991, 20:33 UTC

1 06005U 72031  C 91265.85668056  .00005957 +00000-0 +56553-2 0  9993
2 06005 082.8065 223.9633 0066940 318.4968 041.1117 13.79739069326239

AllMySatでAPOLLO 16 LMをリアルタイム追跡

Download on the App Store